Regional Weather Roundup
Issued by NWS Midland/Odessa, TX

Skip options and go directly to product.
Home | Oldest Version | Previous Version | Current Version | All | Graphics & Text | Save Text | Print | Product List | Glossary On

Skip product version selection by date and time.   
774
ASUS44 KMAF 240702
RWRMAF
MIDLAND AREA WEATHER ROUNDUP
NATIONAL WEATHER SERVICE MIDLAND TX
100 AM CST MON NOV 24 2014

...IN SOUTHWEST TEXAS AND SOUTHEAST NEW MEXICO...

CITY           SKY/WX    TMP DP  RH WIND       PRES   REMARKS
ALPINE         CLEAR     38  28  68 SE8       30.12S WCI  32
ANDREWS        FAIR      37  28  70 W8        30.01R WCI  31
ARTESIA        NOT AVBL
BIG SPRING     CLEAR     41  32  71 W5        30.01R WCI  38
CARLSBAD       PTCLDY    36  28  73 NW9       30.02F WCI  29
DRYDEN           N/A     51  31  46 N15G29    29.97R
FORT STOCKTON  CLEAR     40  29  64 W9        30.05S WCI  34
GUAD PASS      NOT AVBL
HOBBS          CLEAR     36  27  69 CALM      30.01R
MARFA          CLEAR     36  25  64 N6        30.07S WCI  31
MIDLAND AIRPK  CLEAR     42  30  63 NW8       30.01R WCI  37
MIDLAND INTL   CLEAR     40  28  62 NW9       30.00R WCI  34
ODESSA         CLEAR     38  26  62 W8        30.01S WCI  32
PECOS          CLEAR     37  28  69 W7        30.06S WCI  32
PRESIDIO       FAIR      58  21  23 NW13      29.99R
SEMINOLE       CLEAR     35  27  71 CALM      30.01R
SNYDER         CLEAR     37  31  82 W6        29.97R WCI  32
WINK           CLEAR     41  27  57 W9        30.03S WCI  35
$$
...OTHER STATIONS IN TEXAS...

CITY           SKY/WX    TMP DP  RH WIND       PRES   REMARKS
ABILENE        CLEAR     41  35  79 W6        29.95R WCI  37
AMARILLO       CLEAR     31  27  85 NW8       29.96R WCI  23
AUSTIN         CLEAR     55  39  54 N18G28    29.88R
BROWNSVILLE    FOG       69  68  96 S5        29.77R VSB 1/4
CORPUS CHRISTI CLEAR     61  58  90 SW6       29.76R
DALLAS FTW     PTCLDY    47  37  68 NW14      29.85R
DEL RIO        CLEAR     58  38  47 NW9       29.93R
EL PASO        PTCLDY    48  -2  12 NW15      30.06S
HOUSTON INT    CLEAR     62  46  55 NW12      29.78R
LUBBOCK        CLEAR     34  28  79 NW10      29.96R WCI  26
SAN ANGELO     CLEAR     45  35  68 NW8       29.97R
SAN ANTONIO    CLEAR     59  38  45 N17G26    29.85R
WACO           CLEAR     49  37  63 NW10      29.88R
WICHITA FALLS  NOT AVBL
$$
...OTHER LOCATIONS IN NEW MEXICO...

CITY           SKY/WX    TMP DP  RH WIND       PRES   REMARKS
ALAMAGORDO     PTCLDY    39   5  24 MISG      30.08S
ALBUQUERQUE    CLEAR     34  11  38 NW14      30.09R WCI  25
CANNON AFB     MOCLDY    33  28  80 NW12      29.97S WCI  25
CLOVIS         MOCLDY    34  27  75 NW10      29.96S WCI  26
HOLLOMAN AFB   PTCLDY    31   5  32 N13       30.08R WCI  21
ROSWELL        CLEAR     33  28  81 W7        30.01S WCI  27
RUIDOSO        CLEAR     28   5  37 NW21G30   30.04R WCI  15
SANTA FE       CLEAR     24   8  50 N8        30.03R WCI  15
TRUTH OR CONSE CLEAR     38  -1  19 NW3       30.10R
TUCUMCARI        N/A     34  32  92 W6        29.96S WCI  29
$$

USA.gov is the U.S. government's official web portal to all federal, state and local government web resources and services.